ACA8024 CYVR-CYZF

Flight info

Callsign ACA8024
Flight time 2h 15m
Altitude 39000
Route DOLLR DCT GARRE DCT HOWSE DCT IKPAM DCT YHY
Aircraft A321/M-SDE3FGHIRWY/LB1

Departure

Time 2026-05-05 23:42
Airport Vancouver International Airport (CYVR)

Arrival

Time 2026-05-06 01:57
Airport Yellowknife International Airport (CYZF)
Time Latitude Longitude Altitude Speed Heading
2026-05-05 22:57 49.19498 -123.18635 16 ft 0 kts 99°
2026-05-05 23:33 49.19500 -123.18652 16 ft 2 kts 99°
2026-05-05 23:34 49.19503 -123.18675 15 ft 2 kts 99°
2026-05-05 23:34 49.19508 -123.18697 15 ft 2 kts 130°
2026-05-05 23:34 49.19521 -123.18712 15 ft 2 kts 155°
2026-05-05 23:34 49.19536 -123.18718 15 ft 2 kts 180°
2026-05-05 23:35 49.19544 -123.18717 15 ft 1 kts 193°
2026-05-05 23:35 49.19548 -123.18716 15 ft 0 kts 189°
2026-05-05 23:36 49.19545 -123.18716 15 ft 0 kts 190°
2026-05-05 23:37 49.19527 -123.18722 15 ft 3 kts 190°
2026-05-05 23:37 49.19494 -123.18731 15 ft 5 kts 191°
2026-05-05 23:37 49.19447 -123.18744 15 ft 7 kts 191°
2026-05-05 23:37 49.19396 -123.18781 15 ft 8 kts 232°
2026-05-05 23:38 49.19376 -123.18883 15 ft 11 kts 258°
2026-05-05 23:38 49.19359 -123.19016 15 ft 14 kts 259°
2026-05-05 23:38 49.19338 -123.19179 15 ft 16 kts 258°
2026-05-05 23:38 49.19315 -123.19361 15 ft 18 kts 259°
2026-05-05 23:39 49.19289 -123.19563 15 ft 20 kts 259°
2026-05-05 23:39 49.19265 -123.19775 18 ft 18 kts 260°
2026-05-05 23:39 49.19241 -123.19972 19 ft 18 kts 259°
2026-05-05 23:39 49.19215 -123.20165 21 ft 17 kts 259°
2026-05-05 23:40 49.19196 -123.20337 22 ft 10 kts 259°
2026-05-05 23:40 49.19159 -123.20422 22 ft 10 kts 200°
2026-05-05 23:40 49.19089 -123.20442 22 ft 9 kts 190°
2026-05-05 23:40 49.19040 -123.20457 22 ft 6 kts 191°
2026-05-05 23:41 49.18995 -123.20464 22 ft 7 kts 171°
2026-05-05 23:41 49.18965 -123.20401 22 ft 8 kts 101°
2026-05-05 23:41 49.18938 -123.20161 21 ft 57 kts 100°
2026-05-05 23:41 49.18825 -123.19167 16 ft 132 kts 99°
2026-05-05 23:42 49.18662 -123.17548 313 ft 165 kts 98°
2026-05-05 23:42 49.18476 -123.15827 1074 ft 169 kts 98°
2026-05-05 23:42 49.18307 -123.14124 1954 ft 162 kts 99°
2026-05-05 23:42 49.18306 -123.12369 2391 ft 173 kts 70°
2026-05-05 23:43 49.19112 -123.10912 2741 ft 188 kts 36°
2026-05-05 23:43 49.20225 -123.09758 3129 ft 204 kts 32°
2026-05-05 23:43 49.21482 -123.08469 3538 ft 222 kts 33°
2026-05-05 23:43 49.22798 -123.07024 3864 ft 245 kts 35°
2026-05-05 23:44 49.24211 -123.05383 4309 ft 264 kts 36°
2026-05-05 23:44 49.25688 -123.03608 4963 ft 275 kts 37°
2026-05-05 23:44 49.27189 -123.01769 5799 ft 278 kts 37°
2026-05-05 23:44 49.28738 -122.99857 6675 ft 282 kts 36°
2026-05-05 23:45 49.30268 -122.97972 7525 ft 285 kts 36°
2026-05-05 23:45 49.31807 -122.96078 8376 ft 287 kts 37°
2026-05-05 23:45 49.33374 -122.94279 9248 ft 287 kts 32°
2026-05-05 23:45 49.35067 -122.92660 10129 ft 288 kts 27°
2026-05-05 23:46 49.36866 -122.91151 10797 ft 298 kts 26°
2026-05-05 23:46 49.38750 -122.89612 11192 ft 316 kts 25°
2026-05-05 23:46 49.40746 -122.87985 11549 ft 333 kts 26°
2026-05-05 23:46 49.42826 -122.86284 12071 ft 343 kts 26°
2026-05-05 23:47 49.44922 -122.84561 12792 ft 346 kts 25°
2026-05-05 23:47 49.47039 -122.82815 13541 ft 349 kts 25°
2026-05-05 23:47 49.49176 -122.81053 14272 ft 351 kts 25°
2026-05-05 23:47 49.51318 -122.79286 14970 ft 354 kts 25°
2026-05-05 23:48 49.53479 -122.77501 15647 ft 357 kts 25°
2026-05-05 23:48 49.55679 -122.75680 16310 ft 360 kts 25°
2026-05-05 23:48 49.57870 -122.73866 16951 ft 363 kts 25°
2026-05-05 23:48 49.60086 -122.72031 17576 ft 366 kts 24°
2026-05-05 23:49 49.62345 -122.70157 18188 ft 369 kts 24°
2026-05-05 23:49 49.64581 -122.68302 18781 ft 371 kts 24°
2026-05-05 23:49 49.66869 -122.66400 19390 ft 374 kts 24°
2026-05-05 23:49 49.69157 -122.64497 19966 ft 377 kts 24°
2026-05-05 23:50 49.71488 -122.62556 20563 ft 380 kts 24°
2026-05-05 23:50 49.73815 -122.60614 21126 ft 383 kts 24°
2026-05-05 23:50 49.76132 -122.58680 21673 ft 386 kts 24°
2026-05-05 23:50 49.78495 -122.56703 22216 ft 389 kts 24°
2026-05-05 23:51 49.80887 -122.54701 22758 ft 392 kts 24°
2026-05-05 23:51 49.83276 -122.52698 23287 ft 394 kts 24°
2026-05-05 23:51 49.85681 -122.50684 23802 ft 397 kts 24°
2026-05-05 23:51 49.88117 -122.48684 24315 ft 398 kts 22°
2026-05-05 23:52 49.90631 -122.46882 24790 ft 400 kts 19°
2026-05-05 23:52 49.93221 -122.45317 25245 ft 401 kts 15°
2026-05-05 23:52 49.95869 -122.43957 25667 ft 404 kts 14°
2026-05-05 23:52 49.98548 -122.42638 26086 ft 407 kts 13°
2026-05-05 23:53 50.01257 -122.41319 26516 ft 411 kts 14°
2026-05-05 23:53 50.03967 -122.39996 26969 ft 413 kts 14°
2026-05-05 23:53 50.06706 -122.38654 27406 ft 416 kts 14°
2026-05-05 23:53 50.09479 -122.37292 27830 ft 419 kts 14°
2026-05-05 23:54 50.12264 -122.35922 28266 ft 421 kts 14°
2026-05-05 23:54 50.15033 -122.34557 28672 ft 423 kts 14°
2026-05-05 23:54 50.17847 -122.33170 29025 ft 427 kts 14°
2026-05-05 23:54 50.20686 -122.31767 29369 ft 429 kts 14°
2026-05-05 23:55 50.23541 -122.30354 29732 ft 431 kts 14°
2026-05-05 23:55 50.26390 -122.28942 30063 ft 434 kts 15°
2026-05-05 23:55 50.29230 -122.27531 30454 ft 434 kts 14°
2026-05-05 23:55 50.32125 -122.26090 30960 ft 432 kts 14°
2026-05-05 23:56 50.34951 -122.24682 31445 ft 430 kts 14°
2026-05-05 23:56 50.37812 -122.23255 31921 ft 428 kts 14°
2026-05-05 23:56 50.40661 -122.21832 32397 ft 426 kts 14°
2026-05-05 23:56 50.43467 -122.20431 32853 ft 424 kts 14°
2026-05-05 23:57 50.46262 -122.19034 33291 ft 422 kts 14°
2026-05-05 23:57 50.49020 -122.17654 33709 ft 421 kts 14°
2026-05-05 23:57 50.51811 -122.16255 34138 ft 420 kts 14°
2026-05-05 23:57 50.54591 -122.14861 34581 ft 418 kts 14°
2026-05-05 23:58 50.57333 -122.13482 35021 ft 416 kts 14°
2026-05-05 23:58 50.60103 -122.12086 35465 ft 415 kts 14°
2026-05-05 23:58 50.62839 -122.10707 35904 ft 413 kts 14°
2026-05-05 23:58 50.65540 -122.09343 36291 ft 411 kts 14°
2026-05-05 23:59 50.68242 -122.07978 36645 ft 410 kts 13°
2026-05-05 23:59 50.70952 -122.06607 36981 ft 409 kts 13°
2026-05-05 23:59 50.73669 -122.05233 37297 ft 408 kts 13°
2026-05-05 23:59 50.76351 -122.03873 37554 ft 408 kts 13°
2026-05-06 00:00 50.79062 -122.02500 37786 ft 408 kts 13°
2026-05-06 00:00 50.81749 -122.01136 37966 ft 409 kts 13°
2026-05-06 00:00 50.84457 -121.99760 38124 ft 411 kts 13°
2026-05-06 00:00 50.87161 -121.98385 38286 ft 412 kts 13°
2026-05-06 00:01 50.89872 -121.97004 38437 ft 413 kts 13°
2026-05-06 00:01 50.92602 -121.95611 38581 ft 414 kts 13°
2026-05-06 00:01 50.95349 -121.94205 38763 ft 414 kts 13°
2026-05-06 00:01 50.98087 -121.92805 38927 ft 414 kts 13°
2026-05-06 00:02 51.00808 -121.91410 39039 ft 415 kts 13°
2026-05-06 00:02 51.03554 -121.90001 39035 ft 415 kts 13°
2026-05-06 00:02 51.09045 -121.87180 39050 ft 416 kts 13°
2026-05-06 00:03 51.14542 -121.84345 39046 ft 416 kts 13°
2026-05-06 00:03 51.20050 -121.81499 39040 ft 417 kts 13°
2026-05-06 00:04 51.25533 -121.78661 39020 ft 416 kts 13°
2026-05-06 00:04 51.31021 -121.75813 39020 ft 417 kts 13°
2026-05-06 00:05 51.39227 -121.71537 39019 ft 416 kts 13°
2026-05-06 00:06 51.44707 -121.68674 39015 ft 416 kts 13°
2026-05-06 00:06 51.50211 -121.65791 39008 ft 416 kts 13°
2026-05-06 00:07 51.55689 -121.62916 39010 ft 416 kts 13°
2026-05-06 00:07 51.61153 -121.60039 38999 ft 415 kts 13°
2026-05-06 00:08 51.66629 -121.57149 38999 ft 415 kts 13°
2026-05-06 00:08 51.72085 -121.54260 38995 ft 414 kts 13°
2026-05-06 00:09 51.77512 -121.51382 38991 ft 413 kts 13°
2026-05-06 00:09 51.82969 -121.48480 38992 ft 413 kts 13°
2026-05-06 00:10 51.88381 -121.45595 38998 ft 414 kts 13°
2026-05-06 00:10 51.93834 -121.42680 39002 ft 413 kts 13°
2026-05-06 00:11 51.99289 -121.39755 39005 ft 414 kts 12°
2026-05-06 00:11 52.04712 -121.36842 39002 ft 412 kts 13°
2026-05-06 00:12 52.10123 -121.33927 39004 ft 413 kts 13°
2026-05-06 00:12 52.15591 -121.30973 39014 ft 413 kts 13°
2026-05-06 00:13 52.21004 -121.28045 39019 ft 413 kts 13°
2026-05-06 00:13 52.26418 -121.25105 39027 ft 412 kts 13°
2026-05-06 00:14 52.31836 -121.22156 39021 ft 412 kts 13°
2026-05-06 00:14 52.37256 -121.19199 39013 ft 413 kts 13°
2026-05-06 00:15 52.42695 -121.16222 39004 ft 412 kts 13°
2026-05-06 00:15 52.48096 -121.13259 39004 ft 412 kts 13°
2026-05-06 00:16 52.53527 -121.10272 38997 ft 412 kts 13°
2026-05-06 00:16 52.58925 -121.07294 39021 ft 412 kts 13°
2026-05-06 00:17 52.64350 -121.04297 39042 ft 412 kts 13°
2026-05-06 00:17 52.69772 -121.01291 39055 ft 412 kts 13°
2026-05-06 00:18 52.75176 -120.98289 39058 ft 412 kts 13°
2026-05-06 00:18 52.80593 -120.95272 39059 ft 412 kts 13°
2026-05-06 00:19 52.85999 -120.92251 39062 ft 411 kts 13°
2026-05-06 00:19 52.91386 -120.89233 39062 ft 412 kts 13°
2026-05-06 00:20 52.96802 -120.86192 39064 ft 410 kts 13°
2026-05-06 00:20 53.02171 -120.83170 39055 ft 411 kts 13°
2026-05-06 00:21 53.07593 -120.80106 39049 ft 411 kts 13°
2026-05-06 00:21 53.12980 -120.77058 39047 ft 412 kts 13°
2026-05-06 00:22 53.18404 -120.73976 39047 ft 412 kts 13°
2026-05-06 00:22 53.23881 -120.70861 39046 ft 412 kts 13°
2026-05-06 00:23 53.29362 -120.67734 39043 ft 412 kts 13°
2026-05-06 00:23 53.34746 -120.64653 39045 ft 412 kts 13°
2026-05-06 00:24 53.40157 -120.61552 39044 ft 412 kts 13°
2026-05-06 00:24 53.45552 -120.58446 39037 ft 411 kts 13°
2026-05-06 00:25 53.50952 -120.55332 39025 ft 412 kts 13°
2026-05-06 00:25 53.56345 -120.52212 39020 ft 412 kts 13°
2026-05-06 00:26 53.61773 -120.49065 39030 ft 412 kts 13°
2026-05-06 00:26 53.67162 -120.45931 39039 ft 413 kts 13°
2026-05-06 00:27 53.72566 -120.42780 39043 ft 412 kts 13°
2026-05-06 00:27 53.77961 -120.39625 39042 ft 413 kts 13°
2026-05-06 00:28 53.83387 -120.36444 39040 ft 413 kts 13°
2026-05-06 00:28 53.88798 -120.33261 39041 ft 413 kts 13°
2026-05-06 00:29 53.94194 -120.30078 39041 ft 413 kts 13°
2026-05-06 00:29 53.99625 -120.26868 39039 ft 413 kts 13°
2026-05-06 00:30 54.05081 -120.23631 39034 ft 413 kts 13°
2026-05-06 00:30 54.10622 -120.20339 39036 ft 413 kts 13°
2026-05-06 00:31 54.16065 -120.17121 39035 ft 413 kts 12°
2026-05-06 00:31 54.21516 -120.14342 39031 ft 411 kts 11°
2026-05-06 00:32 54.26967 -120.11648 39026 ft 411 kts 11°
2026-05-06 00:32 54.32465 -120.08916 39025 ft 411 kts 11°
2026-05-06 00:33 54.37935 -120.06191 39019 ft 411 kts 11°
2026-05-06 00:33 54.43365 -120.03474 39015 ft 410 kts 11°
2026-05-06 00:34 54.48830 -120.00732 39016 ft 411 kts 11°
2026-05-06 00:34 54.54290 -119.97982 39010 ft 410 kts 10°
2026-05-06 00:35 54.59740 -119.95232 39005 ft 410 kts 10°
2026-05-06 00:35 54.65206 -119.92467 38996 ft 410 kts 10°
2026-05-06 00:36 54.70650 -119.89706 38997 ft 411 kts 10°
2026-05-06 00:36 54.76142 -119.86911 38994 ft 411 kts 10°
2026-05-06 00:37 54.81603 -119.84120 38995 ft 411 kts 10°
2026-05-06 00:37 54.87030 -119.81341 38987 ft 411 kts 10°
2026-05-06 00:38 54.92476 -119.78545 38987 ft 409 kts 11°
2026-05-06 00:38 54.97921 -119.75739 38977 ft 410 kts 11°
2026-05-06 00:39 55.03358 -119.72932 38963 ft 411 kts 10°
2026-05-06 00:39 55.08820 -119.70105 38959 ft 411 kts 10°
2026-05-06 00:40 55.14285 -119.67266 38958 ft 411 kts 10°
2026-05-06 00:40 55.19753 -119.64421 38958 ft 411 kts 10°
2026-05-06 00:41 55.25205 -119.61575 38961 ft 411 kts 10°
2026-05-06 00:41 55.30685 -119.58704 38961 ft 411 kts 10°
2026-05-06 00:42 55.36172 -119.55825 38960 ft 411 kts 10°
2026-05-06 00:42 55.41605 -119.52965 38959 ft 411 kts 10°
2026-05-06 00:43 55.47068 -119.50080 38958 ft 410 kts 10°
2026-05-06 00:43 55.52533 -119.47186 38959 ft 411 kts 10°
2026-05-06 00:44 55.57965 -119.44299 38960 ft 410 kts 10°
2026-05-06 00:44 55.63420 -119.41393 38960 ft 411 kts 10°
2026-05-06 00:45 55.68862 -119.38485 38959 ft 411 kts 10°
2026-05-06 00:45 55.74298 -119.35573 38959 ft 412 kts 10°
2026-05-06 00:46 55.79776 -119.32631 38961 ft 412 kts 11°
2026-05-06 00:46 55.85237 -119.29691 38956 ft 412 kts 11°
2026-05-06 00:47 55.90696 -119.26740 38953 ft 411 kts 11°
2026-05-06 00:47 55.96148 -119.23787 38953 ft 411 kts 11°
2026-05-06 00:48 56.01578 -119.20834 38952 ft 412 kts 11°
2026-05-06 00:48 56.07051 -119.17851 38951 ft 412 kts 11°
2026-05-06 00:49 56.12473 -119.14884 38952 ft 411 kts 11°
2026-05-06 00:49 56.17954 -119.11877 38953 ft 410 kts 11°
2026-05-06 00:50 56.23358 -119.08906 38955 ft 411 kts 11°
2026-05-06 00:50 56.28827 -119.05884 38957 ft 411 kts 11°
2026-05-06 00:51 56.34262 -119.02876 38958 ft 411 kts 10°
2026-05-06 00:51 56.39688 -118.99865 38958 ft 411 kts 10°
2026-05-06 00:52 56.45115 -118.96845 38962 ft 412 kts 10°
2026-05-06 00:52 56.50563 -118.93801 38966 ft 410 kts 10°
2026-05-06 00:53 56.56001 -118.90755 38958 ft 411 kts 10°
2026-05-06 00:53 56.61451 -118.87692 38964 ft 410 kts 10°
2026-05-06 00:54 56.66870 -118.84640 38958 ft 410 kts 10°
2026-05-06 00:54 56.72305 -118.81570 38959 ft 410 kts 10°
2026-05-06 00:55 56.77710 -118.78506 38961 ft 411 kts 10°
2026-05-06 00:55 56.83145 -118.75417 38965 ft 411 kts 10°
2026-05-06 00:56 56.88582 -118.72313 38964 ft 410 kts 10°
2026-05-06 00:56 56.94002 -118.69218 38972 ft 410 kts 10°
2026-05-06 00:57 56.99442 -118.66098 38974 ft 410 kts 10°
2026-05-06 00:57 57.04839 -118.62985 38967 ft 411 kts 11°
2026-05-06 00:58 57.10214 -118.59503 38969 ft 412 kts 12°
2026-05-06 00:58 57.15586 -118.55904 38970 ft 411 kts 12°
2026-05-06 00:59 57.20932 -118.52319 38963 ft 412 kts 12°
2026-05-06 00:59 57.26297 -118.48712 38962 ft 411 kts 12°
2026-05-06 01:00 57.31628 -118.45119 38960 ft 411 kts 12°
2026-05-06 01:00 57.36993 -118.41498 38957 ft 412 kts 12°
2026-05-06 01:01 57.42344 -118.37872 38958 ft 412 kts 12°
2026-05-06 01:01 57.47700 -118.34232 38955 ft 412 kts 13°
2026-05-06 01:02 57.53065 -118.30574 38957 ft 412 kts 13°
2026-05-06 01:02 57.58418 -118.26914 38959 ft 412 kts 13°
2026-05-06 01:03 57.63786 -118.23229 38959 ft 412 kts 13°
2026-05-06 01:03 57.69112 -118.19563 38959 ft 412 kts 12°
2026-05-06 01:04 57.74489 -118.15852 38954 ft 412 kts 13°
2026-05-06 01:04 57.79853 -118.12139 38957 ft 413 kts 13°
2026-05-06 01:05 57.85197 -118.08426 38960 ft 412 kts 13°
2026-05-06 01:05 57.90548 -118.04694 38948 ft 413 kts 12°
2026-05-06 01:06 57.95916 -118.00944 38945 ft 413 kts 12°
2026-05-06 01:06 58.01273 -117.97186 38939 ft 413 kts 12°
2026-05-06 01:07 58.06618 -117.93425 38943 ft 412 kts 12°
2026-05-06 01:07 58.11975 -117.89642 38945 ft 412 kts 12°
2026-05-06 01:08 58.17326 -117.85854 38942 ft 412 kts 13°
2026-05-06 01:08 58.22649 -117.82069 38943 ft 412 kts 12°
2026-05-06 01:09 58.28017 -117.78243 38948 ft 411 kts 12°
2026-05-06 01:09 58.33381 -117.74405 38948 ft 411 kts 12°
2026-05-06 01:10 58.38715 -117.70579 38949 ft 411 kts 12°
2026-05-06 01:10 58.44047 -117.66743 38949 ft 411 kts 12°
2026-05-06 01:11 58.49356 -117.62908 38863 ft 412 kts 12°
2026-05-06 01:11 58.54678 -117.59055 38961 ft 411 kts 12°
2026-05-06 01:12 58.60022 -117.55172 38970 ft 412 kts 12°
2026-05-06 01:12 58.65376 -117.51264 38967 ft 411 kts 12°
2026-05-06 01:13 58.70710 -117.47360 38981 ft 411 kts 12°
2026-05-06 01:13 58.76138 -117.43378 38976 ft 411 kts 12°
2026-05-06 01:14 58.84173 -117.37455 38977 ft 412 kts 12°
2026-05-06 01:14 58.89506 -117.33506 38973 ft 411 kts 12°
2026-05-06 01:15 58.94793 -117.29580 38972 ft 412 kts 12°
2026-05-06 01:15 59.00140 -117.25600 38974 ft 411 kts 12°
2026-05-06 01:16 59.05455 -117.21626 38976 ft 411 kts 12°
2026-05-06 01:16 59.10774 -117.17636 38975 ft 412 kts 12°
2026-05-06 01:17 59.16083 -117.13644 38974 ft 411 kts 12°
2026-05-06 01:17 59.21404 -117.09623 38976 ft 411 kts 12°
2026-05-06 01:18 59.26683 -117.05625 38984 ft 410 kts 12°
2026-05-06 01:18 59.31982 -117.01597 38982 ft 411 kts 12°
2026-05-06 01:19 59.37299 -116.97541 38982 ft 411 kts 12°
2026-05-06 01:19 59.42617 -116.93468 38983 ft 410 kts 12°
2026-05-06 01:20 59.47892 -116.89419 38984 ft 411 kts 12°
2026-05-06 01:20 59.53215 -116.85319 38987 ft 411 kts 12°
2026-05-06 01:21 59.58551 -116.81195 38981 ft 410 kts 12°
2026-05-06 01:21 59.63821 -116.77106 38980 ft 411 kts 12°
2026-05-06 01:22 59.69143 -116.72964 38980 ft 411 kts 12°
2026-05-06 01:22 59.74457 -116.68815 38983 ft 411 kts 12°
2026-05-06 01:23 59.79723 -116.64687 38982 ft 410 kts 12°
2026-05-06 01:23 59.85039 -116.60510 38981 ft 411 kts 12°
2026-05-06 01:24 59.90324 -116.56337 38985 ft 411 kts 12°
2026-05-06 01:24 59.95610 -116.52151 38991 ft 411 kts 12°
2026-05-06 01:25 60.00870 -116.47974 38983 ft 410 kts 12°
2026-05-06 01:25 60.06146 -116.43767 38989 ft 410 kts 12°
2026-05-06 01:26 60.11446 -116.39525 38991 ft 410 kts 12°
2026-05-06 01:26 60.16732 -116.35283 38984 ft 410 kts 12°
2026-05-06 01:27 60.22046 -116.31004 38980 ft 411 kts 13°
2026-05-06 01:27 60.27546 -116.26559 38979 ft 413 kts 13°
2026-05-06 01:28 60.32832 -116.22268 38982 ft 412 kts 13°
2026-05-06 01:28 60.38143 -116.17948 38984 ft 412 kts 13°
2026-05-06 01:29 60.43460 -116.13599 38987 ft 412 kts 13°
2026-05-06 01:29 60.48757 -116.09257 38987 ft 412 kts 13°
2026-05-06 01:30 60.54070 -116.04887 38991 ft 412 kts 13°
2026-05-06 01:30 60.59379 -116.00502 38998 ft 412 kts 13°
2026-05-06 01:31 60.64685 -115.96106 38998 ft 412 kts 13°
2026-05-06 01:31 60.70015 -115.91676 39009 ft 412 kts 13°
2026-05-06 01:32 60.75313 -115.87254 39010 ft 412 kts 13°
2026-05-06 01:32 60.80616 -115.82812 39028 ft 413 kts 14°
2026-05-06 01:33 60.85984 -115.78680 39025 ft 410 kts 10°
2026-05-06 01:33 60.91404 -115.75009 39020 ft 408 kts
2026-05-06 01:34 60.96781 -115.71389 38966 ft 409 kts 10°
2026-05-06 01:34 60.99535 -115.69527 38656 ft 408 kts 10°
2026-05-06 01:34 61.02279 -115.67666 38232 ft 405 kts 10°
2026-05-06 01:35 61.04919 -115.65869 37706 ft 402 kts 10°
2026-05-06 01:35 61.07570 -115.64059 37058 ft 400 kts 10°
2026-05-06 01:35 61.10167 -115.62288 36407 ft 398 kts 10°
2026-05-06 01:35 61.12782 -115.60504 35819 ft 400 kts 10°
2026-05-06 01:36 61.15424 -115.58700 35143 ft 402 kts 10°
2026-05-06 01:36 61.18077 -115.56882 34480 ft 404 kts 10°
2026-05-06 01:36 61.20742 -115.55054 33701 ft 406 kts 10°
2026-05-06 01:36 61.23407 -115.53226 32883 ft 408 kts 11°
2026-05-06 01:37 61.26086 -115.51378 32105 ft 408 kts 11°
2026-05-06 01:37 61.28738 -115.49545 31306 ft 409 kts 11°
2026-05-06 01:37 61.31451 -115.47668 30445 ft 411 kts 11°
2026-05-06 01:37 61.34130 -115.45813 29594 ft 413 kts 11°
2026-05-06 01:38 61.36837 -115.43931 29002 ft 408 kts 12°
2026-05-06 01:38 61.39473 -115.42088 28435 ft 403 kts 12°
2026-05-06 01:38 61.42098 -115.40253 27863 ft 398 kts 12°
2026-05-06 01:38 61.44704 -115.38429 27298 ft 394 kts 12°
2026-05-06 01:39 61.47272 -115.36630 26708 ft 390 kts 12°
2026-05-06 01:39 61.49829 -115.34837 26138 ft 386 kts 13°
2026-05-06 01:39 61.52330 -115.33078 25556 ft 383 kts 14°
2026-05-06 01:39 61.54847 -115.31307 24991 ft 379 kts 14°
2026-05-06 01:40 61.57326 -115.29562 24446 ft 376 kts 14°
2026-05-06 01:40 61.59765 -115.27840 23884 ft 374 kts 14°
2026-05-06 01:40 61.62229 -115.26100 23309 ft 372 kts 14°
2026-05-06 01:40 61.64667 -115.24374 22734 ft 370 kts 15°
2026-05-06 01:41 61.67056 -115.22679 22194 ft 367 kts 15°
2026-05-06 01:41 61.69815 -115.20718 21569 ft 364 kts 15°
2026-05-06 01:41 61.72174 -115.19039 21012 ft 362 kts 15°
2026-05-06 01:41 61.74544 -115.17348 20460 ft 360 kts 15°
2026-05-06 01:42 61.76920 -115.15652 19893 ft 359 kts 15°
2026-05-06 01:42 61.79240 -115.13992 19349 ft 357 kts 15°
2026-05-06 01:42 61.81580 -115.12318 18812 ft 354 kts 15°
2026-05-06 01:42 61.83874 -115.10671 18291 ft 352 kts 15°
2026-05-06 01:43 61.86206 -115.08991 17747 ft 350 kts 15°
2026-05-06 01:43 61.88483 -115.07350 17208 ft 348 kts 15°
2026-05-06 01:43 61.90761 -115.05708 16649 ft 347 kts 15°
2026-05-06 01:43 61.93043 -115.04060 16080 ft 346 kts 15°
2026-05-06 01:44 61.95296 -115.02429 15518 ft 346 kts 15°
2026-05-06 01:44 61.97588 -115.00772 14954 ft 344 kts 15°
2026-05-06 01:44 61.99828 -114.99146 14406 ft 343 kts 15°
2026-05-06 01:44 62.02084 -114.97508 13850 ft 341 kts 15°
2026-05-06 01:45 62.04328 -114.95877 13281 ft 340 kts 16°
2026-05-06 01:45 62.06583 -114.94237 12693 ft 338 kts 16°
2026-05-06 01:45 62.08821 -114.92603 12120 ft 336 kts 17°
2026-05-06 01:45 62.11023 -114.90992 11559 ft 331 kts 17°
2026-05-06 01:46 62.13166 -114.89416 11005 ft 317 kts 17°
2026-05-06 01:46 62.15236 -114.87888 10612 ft 293 kts 17°
2026-05-06 01:46 62.17086 -114.86523 10430 ft 281 kts 17°
2026-05-06 01:46 62.18929 -114.85166 10241 ft 280 kts 17°
2026-05-06 01:47 62.20787 -114.83801 10061 ft 279 kts 17°
2026-05-06 01:47 62.22647 -114.82436 9810 ft 280 kts 17°
2026-05-06 01:47 62.24491 -114.81077 9448 ft 277 kts 17°
2026-05-06 01:47 62.26274 -114.79761 9121 ft 272 kts 18°
2026-05-06 01:48 62.28049 -114.78445 8787 ft 268 kts 18°
2026-05-06 01:48 62.29798 -114.77147 8456 ft 265 kts 18°
2026-05-06 01:48 62.31543 -114.75854 8143 ft 260 kts 18°
2026-05-06 01:48 62.33241 -114.74593 7854 ft 256 kts 18°
2026-05-06 01:49 62.34936 -114.73333 7561 ft 252 kts 18°
2026-05-06 01:49 62.36599 -114.72096 7294 ft 248 kts 19°
2026-05-06 01:49 62.38227 -114.70886 6921 ft 244 kts 19°
2026-05-06 01:49 62.39842 -114.69685 6637 ft 240 kts 19°
2026-05-06 01:50 62.41402 -114.68520 6314 ft 235 kts 19°
2026-05-06 01:50 62.42938 -114.67372 6032 ft 232 kts 19°
2026-05-06 01:50 62.44460 -114.66233 5789 ft 228 kts 19°
2026-05-06 01:50 62.45943 -114.65123 5547 ft 225 kts 20°
2026-05-06 01:51 62.47394 -114.64033 5313 ft 223 kts 20°
2026-05-06 01:51 62.48860 -114.62996 5067 ft 221 kts 13°
2026-05-06 01:51 62.50386 -114.62717 4812 ft 224 kts 358°
2026-05-06 01:51 62.51951 -114.62938 4515 ft 224 kts 355°
2026-05-06 01:52 62.53508 -114.63262 4313 ft 219 kts 354°
2026-05-06 01:52 62.54986 -114.63285 4122 ft 212 kts 13°
2026-05-06 01:52 62.56340 -114.62150 3910 ft 205 kts 36°
2026-05-06 01:52 62.57388 -114.60117 3703 ft 200 kts 57°
2026-05-06 01:53 62.58054 -114.57461 3506 ft 195 kts 76°
2026-05-06 01:53 62.58279 -114.54571 3302 ft 190 kts 95°
2026-05-06 01:53 62.58082 -114.51786 2969 ft 188 kts 112°
2026-05-06 01:53 62.57524 -114.49356 2803 ft 169 kts 127°
2026-05-06 01:54 62.56749 -114.47524 2571 ft 149 kts 141°
2026-05-06 01:54 62.55912 -114.46362 2316 ft 133 kts 153°
2026-05-06 01:54 62.55085 -114.45722 2128 ft 124 kts 163°
2026-05-06 01:54 62.54243 -114.45467 1986 ft 124 kts 172°
2026-05-06 01:55 62.53390 -114.45351 1828 ft 122 kts 170°
2026-05-06 01:55 62.52538 -114.45219 1671 ft 122 kts 171°
2026-05-06 01:55 62.51700 -114.45085 1504 ft 122 kts 170°
2026-05-06 01:55 62.50851 -114.44954 1344 ft 121 kts 169°
2026-05-06 01:56 62.50012 -114.44817 1175 ft 121 kts 171°
2026-05-06 01:56 62.49173 -114.44685 1020 ft 120 kts 170°
2026-05-06 01:56 62.48348 -114.44567 901 ft 119 kts 170°
2026-05-06 01:56 62.47534 -114.44444 742 ft 118 kts 171°
2026-05-06 01:57 62.46748 -114.44304 683 ft 97 kts 175°
2026-05-06 01:57 62.46249 -114.44228 681 ft 48 kts 179°
2026-05-06 01:57 62.46036 -114.44195 678 ft 25 kts 174°
2026-05-06 01:57 62.45845 -114.44169 674 ft 28 kts 175°
2026-05-06 01:58 62.45648 -114.44140 670 ft 28 kts 175°
2026-05-06 01:58 62.45448 -114.44115 665 ft 29 kts 176°
2026-05-06 01:58 62.45313 -114.44104 662 ft 9 kts 167°
2026-05-06 01:58 62.45302 -114.44055 661 ft 3 kts 37°
2026-05-06 01:59 62.45336 -114.44063 662 ft 7 kts 342°
2026-05-06 01:59 62.45399 -114.44101 664 ft 12 kts 348°
2026-05-06 01:59 62.45500 -114.44120 667 ft 16 kts 356°
2026-05-06 01:59 62.45634 -114.44137 670 ft 21 kts 356°
2026-05-06 02:00 62.45797 -114.44160 673 ft 25 kts 356°
2026-05-06 02:00 62.45987 -114.44189 677 ft 28 kts 355°
2026-05-06 02:00 62.46184 -114.44222 681 ft 27 kts 354°
2026-05-06 02:00 62.46370 -114.44252 682 ft 26 kts 354°
2026-05-06 02:01 62.46548 -114.44276 683 ft 24 kts 355°
2026-05-06 02:01 62.46717 -114.44301 683 ft 24 kts 354°
2026-05-06 02:01 62.46860 -114.44314 682 ft 14 kts 13°
2026-05-06 02:01 62.46932 -114.44170 680 ft 10 kts 57°
2026-05-06 02:02 62.46972 -114.44037 677 ft 8 kts 51°
2026-05-06 02:02 62.47022 -114.44003 676 ft 6 kts
2026-05-06 02:02 62.47045 -114.43955 675 ft 3 kts 78°
2026-05-06 02:02 62.47047 -114.43893 674 ft 3 kts 86°
2026-05-06 02:03 62.47047 -114.43884 673 ft 0 kts 86°